Tracking 18647 objects as of 29-May-2017
HD Live streaming from Space Station
objects crossing your sky now

CHINASAT 5B (SINOSAT 1)

Track CHINASAT 5B (SINOSAT 1) now!
CHINASAT 5B (SINOSAT 1) is classified as:


NORAD ID: 25404
Int'l Code: 1998-044A
Perigee: 36,066.1 km
Apogee: 36,139.4 km
Inclination: 4.4 °
Period: 1,451.9 minutes
Semi major axis: 42473 km
RCS: 25.1188 m2 (large)
Launch date: July 18, 1998
Source: People's Republic of China (PRC)
Launch site: Xichang Space Center, China (XSC)

11 C-band, broadcasting, business services, direct-to-home TV broadcasting, telecommunications, VSAT networks; Asia Pacific region.
Your satellite tracking list
Your tracking list is empty





NASA's NSSDC Master Catalog

Two Line Element Set (TLE):
1 25404U 98044A   17147.53590878 -.00000219 +00000-0 +00000-0 0  9998
2 25404 004.3762 066.0603 0008627 160.4776 156.0074 00.99179674069093
Source of the keplerian elements: AFSPC